Flag for Taiwan Weather past 2 weeks in Taipei, Taiwan

Now
63 °F

Partly sunny.


Feels Like: 63 °F
Forecast: 62 / 68 °F
Wind: 17 mph from East

Location: Sungshan / Taipei

Current Time: Mar 5, 2015 at 11:09:46 AM

Latest Report: Mar 5, 2015 at 10:00 AM


Visibility: N/A

Pressure: 30.12 "Hg

Humidity: 77%

Dew point: 55 °F

Location of TaipeiLocation

Historic Weather in Taipei — Graph

°F

Taipei temperature yesterday

Maximum temperature yesterday: 61 °F (at 11:30 AM)
Minimum temperature yesterday: 57 °F (at 2:00 AM)
Average temperature yesterday: 58 °F

Past Weeks' High & Low Weather Summary

 TemperatureHumidityPressure
High81 °F (Feb 21, 1:00 PM)100% (Feb 24, 6:30 AM)30.27 "Hg (Feb 24, 6:30 AM)
Low54 °F (Mar 1, 6:00 PM)39% (Feb 21, 1:00 PM)29.83 "Hg (Mar 3, 1:30 PM)
Average65 °F76%30.05 "Hg
* Reported Feb 18 10:00 AM — Mar 5 10:00 AM, Taipei, Weather by CustomWeather, © 2015

Note: Actual official high and low records may vary slightly from our data, if they occured in-between our weather recording intervals... More about our weather records

Advertising

Taipei weather history for previous 24 hours

 ConditionsComfort  
Time TempWeatherWind HumidityBarometerVisibility
10:00 AM
Thu, Mar 5
63 °FPartly sunny.17 mph77%30.12 "HgN/A
9:30 AM63 °FPartly sunny.17 mph83%30.12 "HgN/A
9:00 AM63 °FPartly sunny.17 mph77%30.12 "HgN/A
8:30 AM63 °FPartly sunny.21 mph83%30.12 "HgN/A
8:00 AM59 °FPartly sunny.17 mph88%30.12 "HgN/A
7:30 AM59 °FPartly sunny.17 mph88%30.12 "HgN/A
7:00 AM57 °FPartly sunny.17 mph88%30.12 "HgN/A
6:30 AM57 °FBroken clouds.16 mph88%30.12 "HgN/A
5:00 AM57 °FPassing clouds.15 mph88%30.12 "HgN/A
4:00 AM57 °FLight rain. Passing clouds.17 mph88%30.12 "HgN/A
3:00 AM57 °FLight rain. Passing clouds.16 mph88%30.12 "HgN/A
2:00 AM57 °FLight rain. Passing clouds.12 mph88%30.15 "HgN/A
1:00 AM57 °FPassing clouds.12 mph88%30.15 "HgN/A
12:00 AM57 °FPassing clouds.14 mph88%30.15 "HgN/A
11:30 PM
Wed, Mar 4
57 °FPassing clouds.14 mph88%30.15 "HgN/A
11:00 PM57 °FPartly cloudy.12 mph88%30.15 "HgN/A
10:30 PM57 °FPartly cloudy.15 mph88%30.15 "HgN/A
10:00 PM57 °FPartly cloudy.15 mph88%30.15 "HgN/A
9:30 PM57 °FPartly cloudy.15 mph82%30.15 "HgN/A
9:00 PM57 °FPartly cloudy.14 mph88%30.15 "HgN/A
8:30 PM57 °FLight rain. Partly cloudy.16 mph88%30.15 "HgN/A
8:00 PM57 °FLight rain. Partly cloudy.15 mph88%30.12 "HgN/A
7:30 PM57 °FLight rain. Partly cloudy.14 mph88%30.12 "Hg5 mi
7:00 PM57 °FLight rain. Passing clouds.15 mph88%30.12 "Hg4 mi
6:30 PM57 °FLight rain. Passing clouds.14 mph88%30.12 "Hg4 mi
6:00 PM57 °FLight rain. Passing clouds.13 mph88%30.09 "Hg4 mi
5:30 PM57 °FDrizzle. Mostly cloudy.16 mph88%30.09 "HgN/A
5:00 PM59 °FScattered showers. Mostly cloudy.14 mph77%30.09 "HgN/A
4:30 PM59 °FScattered showers. Mostly cloudy.15 mph77%30.09 "HgN/A
4:00 PM59 °FScattered showers. Partly sunny.14 mph77%30.07 "HgN/A
3:30 PM59 °FScattered showers. Partly sunny.13 mph77%30.07 "HgN/A
3:00 PM59 °FPartly sunny.13 mph77%30.07 "HgN/A
2:30 PM59 °FPartly sunny.14 mph77%30.09 "HgN/A
2:00 PM59 °FPartly sunny.10 mph77%30.09 "HgN/A
1:30 PM59 °FPartly sunny.10 mph77%30.09 "HgN/A
1:00 PM59 °FMostly cloudy.14 mph77%30.09 "HgN/A
12:30 PM59 °FMostly cloudy.8 mph72%30.12 "HgN/A
12:00 PM59 °FMostly cloudy.13 mph72%30.12 "HgN/A
11:30 AM61 °FMostly cloudy.15 mph72%30.12 "HgN/A
11:00 AM59 °FMostly cloudy.13 mph77%30.15 "HgN/A
Weather by CustomWeather, © 2015

See weather overviewHow to use our weather pages